WESTFORD NEEDLES, 2378

Orbit data source: Space-Track

WESTFORD NEEDLES, 2378 is space debris in LEO originally from a launch on Thu, 09 May 1963 UTC launched from the Air Force Western Test Range (AFWTR). Debris objects in space refer to the collection of defunct objects orbiting the Earth. Examples of debris include non-operational satellites, rocket bodies, and fragments generated from explosions, collisions, or faulty payload assembly.

Loading next visibility...
Identifier
2378, 1963-014Y
Orbit
LEO
Country
Flag of USUS
Related business
Manufacturer
Unknown
Mission
Spacecraft
Bus & Motor
Unknown
Mass
Unknown
Launch date (UTC)
1963-05-09 (63 years ago)
Launch vehicle
Unknown
Launch site
Air Force Western Test Range (AFWTR)
Object type
Payload
Rocket body
Debris
Shape & HBR
Unknown shape, 1.1 m
Radar Cross Section
Medium (>0.1 m² and <1 m²)

Expand to show TLE details & history
Last TLE update: 3 months ago

TLE from 3 months ago
0 WESTFORD NEEDLES
1 02378U 63014Y   26030.32695896  .00000173  00000-0  77499-1 0  9991
2 02378  87.3586 171.3454 0181116 310.5551  47.9659  8.66640621983540
Epoch: 2026-01-30T07:50Z
TLE epoch observation values (Epoch: 2026-01-30T07:50:49.254Z)
Latitude
-0.00001°
Longitude
-75.92672°
Altitude
3,516.204 km
Speed
6.386 km/s
True Right ascension
11h 25m 22s
True Declination
0° 00' 00"
Sunlit
Object was in daylight at epoch
Visualization orbit readout
Latitude
Unknown
Longitude
Unknown
Altitude
Unknown
Speed
Unknown
Apparent Right ascension
Unknown
Apparent Declination
Unknown
Sunlit
N/A
Visualization observer readout
Local Sidereal Time
23:54:12
Azimuth
Unknown
Elevation
Unknown
Doppler factor
Unknown
Orbital elements
Apogee altitude
3,812.702 km
Perigee altitude
3,450.124 km
Semi-major axis
10,009.55 km
Eccentricity
0.01811
Inclination
87.3586°
RAAN
171.3454°
Arg. of periapsis
310.5551°
True anomaly
49.53094°
Mean anomaly
47.9659°
Eccentric anomaly
48.74605°
Mean motion
2.16731 °/min
Orbital period
166.1 mins
BSTAR
0.077499
Loading maneuver chart data...
Computing Atmospheric mass density...

Documentation

Showing up to 5 results
|